| time (UTC) | temp F | wind direction | speed knots | gust knots | rain 1hr in | rain 24hr in | rain mn in | humidity % | barometer mb |
| 20260507005508 | 52 | 254 | 0.0 | 0.0 | 0.00 | 0.48 | 0.23 | 59 | 1014.1 |
| 20260507005002 | 52 | 254 | 0.0 | 0.0 | 0.00 | 0.48 | 0.23 | 59 | 1013.9 |
| 20260507004512 | 52 | 254 | 0.0 | 0.9 | 0.00 | 0.49 | 0.23 | 60 | 1013.8 |
| 20260507004005 | 52 | 254 | 0.0 | 0.9 | 0.00 | 0.49 | 0.23 | 59 | 1013.8 |
| 20260507003503 | 52 | 254 | 0.0 | 0.9 | 0.00 | 0.49 | 0.23 | 57 | 1013.8 |
| 20260507003008 | 53 | 260 | 0.0 | 0.9 | 0.00 | 0.50 | 0.23 | 57 | 1013.8 |
| 20260507002504 | 53 | 301 | 0.0 | 0.9 | 0.00 | 0.50 | 0.23 | 57 | 1013.6 |
| 20260507002008 | 53 | 301 | 0.0 | 0.9 | 0.00 | 0.50 | 0.23 | 56 | 1013.5 |
| 20260507001512 | 53 | 352 | 0.0 | 0.9 | 0.00 | 0.51 | 0.23 | 55 | 1013.6 |
| 20260507001003 | 53 | 352 | 0.0 | 1.7 | 0.00 | 0.51 | 0.23 | 55 | 1013.6 |
| 20260507000509 | 54 | 352 | 0.0 | 1.7 | 0.00 | 0.51 | 0.23 | 54 | 1013.3 |
| 20260507000024 | 54 | 319 | 0.0 | 1.7 | 0.00 | 0.51 | 0.23 | 54 | 1013.2 |
| 20260506235508 | 54 | 217 | 0.0 | 1.7 | 0.00 | 0.52 | 0.23 | 54 | 1013.4 |
| 20260506235007 | 54 | 346 | 0.0 | 0.9 | 0.00 | 0.52 | 0.23 | 53 | 1013.3 |
| 20260506234534 | 54 | 49 | 0.0 | 0.9 | 0.00 | 0.52 | 0.23 | 55 | 1013.4 |
| 20260506234009 | 54 | 69 | 0.0 | 1.7 | 0.00 | 0.52 | 0.23 | 54 | 1013.3 |
| 20260506233503 | 54 | 25 | 0.0 | 1.7 | 0.00 | 0.52 | 0.23 | 53 | 1013.2 |
| 20260506233008 | 55 | 336 | 0.0 | 1.7 | 0.00 | 0.52 | 0.23 | 52 | 1013.2 |
| 20260506232503 | 55 | 348 | 0.0 | 6.1 | 0.00 | 0.52 | 0.23 | 52 | 1013.2 |
| 20260506232003 | 55 | 188 | 0.0 | 6.1 | 0.00 | 0.52 | 0.23 | 52 | 1013.4 |
| 20260506231528 | 55 | 221 | 0.9 | 5.2 | 0.00 | 0.52 | 0.23 | 53 | 1013.4 |
| 20260506231006 | 55 | 233 | 0.0 | 3.5 | 0.00 | 0.52 | 0.23 | 53 | 1013.5 |
| 20260506230506 | 55 | 277 | 0.0 | 3.5 | 0.00 | 0.52 | 0.23 | 53 | 1013.7 |
| 20260506230018 | 55 | 186 | 0.0 | 3.5 | 0.00 | 0.52 | 0.23 | 53 | 1013.8 |
| 20260506225507 | 55 | 41 | 0.0 | 1.7 | 0.00 | 0.52 | 0.23 | 53 | 1013.6 |
| 20260506225010 | 55 | 352 | 0.0 | 1.7 | 0.00 | 0.52 | 0.23 | 54 | 1013.7 |
| 20260506224522 | 55 | 196 | 0.0 | 1.7 | 0.00 | 0.52 | 0.23 | 54 | 1013.7 |
| 20260506224007 | 56 | 42 | 0.0 | 1.7 | 0.00 | 0.52 | 0.23 | 52 | 1013.7 |
| 20260506223509 | 56 | 24 | 0.0 | 1.7 | 0.00 | 0.52 | 0.23 | 52 | 1013.8 |
| 20260506223037 | 56 | 349 | 0.0 | 2.6 | 0.00 | 0.52 | 0.23 | 53 | 1013.9 |
| 20260506222510 | 56 | 319 | 0.0 | 2.6 | 0.00 | 0.52 | 0.23 | 51 | 1013.9 |
| 20260506222010 | 56 | 315 | 0.0 | 2.6 | 0.00 | 0.52 | 0.23 | 53 | 1013.9 |
| 20260506221509 | 56 | 340 | 0.0 | 1.7 | 0.00 | 0.54 | 0.23 | 51 | 1014.0 |
| 20260506221003 | 56 | 337 | 0.0 | 1.7 | 0.00 | 0.54 | 0.23 | 51 | 1013.6 |
| 20260506220504 | 56 | 290 | 0.0 | 1.7 | 0.00 | 0.55 | 0.23 | 51 | 1013.5 |
| 20260506220011 | 56 | 246 | 0.0 | 2.6 | 0.00 | 0.55 | 0.23 | 53 | 1013.3 |
| 20260506215509 | 56 | 32 | 0.0 | 2.6 | 0.00 | 0.56 | 0.23 | 50 | 1013.3 |
| 20260506215008 | 56 | 312 | 0.9 | 2.6 | 0.00 | 0.56 | 0.23 | 50 | 1013.2 |
| 20260506214517 | 57 | 290 | 0.9 | 4.3 | 0.00 | 0.57 | 0.23 | 50 | 1013.3 |
| 20260506214008 | 57 | 338 | 0.0 | 4.3 | 0.00 | 0.58 | 0.23 | 51 | 1013.2 |
| 20260506213510 | 57 | 351 | 0.0 | 2.6 | 0.00 | 0.58 | 0.23 | 53 | 1013.0 |
| 20260506213026 | 57 | 318 | 0.0 | 3.5 | 0.00 | 0.61 | 0.23 | 53 | 1013.0 |
| 20260506212508 | 57 | 360 | 0.9 | 4.3 | 0.00 | 0.63 | 0.23 | 52 | 1013.0 |
| 20260506212015 | 57 | 360 | 0.0 | 4.3 | 0.00 | 0.64 | 0.23 | 52 | 1013.0 |
| 20260506211537 | 57 | 40 | 0.0 | 3.5 | 0.00 | 0.66 | 0.23 | 52 | 1013.0 |
| 20260506211010 | 57 | 338 | 0.0 | 7.0 | 0.00 | 0.66 | 0.23 | 51 | 1013.0 |
| 20260506210511 | 57 | 74 | 0.9 | 7.0 | 0.00 | 0.66 | 0.23 | 50 | 1012.9 |
| 20260506210009 | 57 | 331 | 0.9 | 3.5 | 0.00 | 0.66 | 0.23 | 53 | 1012.9 |
| 20260506205504 | 57 | 34 | 0.0 | 3.5 | 0.00 | 0.66 | 0.23 | 51 | 1013.0 |
| 20260506205007 | 57 | 5 | 0.9 | 3.5 | 0.00 | 0.66 | 0.23 | 49 | 1012.9 |
| 20260506204516 | 57 | 360 | 0.0 | 2.6 | 0.00 | 0.66 | 0.23 | 50 | 1013.0 |
| 20260506204006 | 57 | 71 | 0.0 | 1.7 | 0.00 | 0.66 | 0.23 | 49 | 1012.9 |
| 20260506203506 | 58 | 238 | 0.0 | 7.8 | 0.00 | 0.66 | 0.23 | 50 | 1012.9 |
| 20260506203027 | 58 | 338 | 0.9 | 7.8 | 0.00 | 0.66 | 0.23 | 49 | 1012.8 |
| 20260506202507 | 58 | 28 | 0.0 | 5.2 | 0.00 | 0.66 | 0.23 | 48 | 1012.8 |
| 20260506202012 | 58 | 338 | 0.9 | 5.2 | 0.00 | 0.66 | 0.23 | 52 | 1012.6 |
| 20260506201533 | 58 | 346 | 0.9 | 5.2 | 0.00 | 0.66 | 0.23 | 49 | 1012.7 |
| 20260506201010 | 58 | 352 | 0.0 | 10.4 | 0.00 | 0.66 | 0.23 | 48 | 1012.7 |
| 20260506200512 | 58 | 55 | 1.7 | 10.4 | 0.00 | 0.66 | 0.23 | 48 | 1012.7 |
| 20260506200029 | 58 | 14 | 0.0 | 5.2 | 0.00 | 0.66 | 0.23 | 51 | 1012.6 |
| 20260506195509 | 59 | 21 | 0.9 | 7.0 | 0.00 | 0.66 | 0.23 | 51 | 1012.6 |
| 20260506195013 | 59 | 5 | 0.0 | 7.0 | 0.00 | 0.66 | 0.23 | 49 | 1012.7 |
| 20260506194531 | 59 | 67 | 0.0 | 3.5 | 0.00 | 0.66 | 0.23 | 49 | 1012.5 |
| 20260506194008 | 59 | 12 | 0.9 | 3.5 | 0.00 | 0.66 | 0.23 | 49 | 1012.5 |
| 20260506193508 | 60 | 268 | 0.0 | 4.3 | 0.00 | 0.66 | 0.23 | 51 | 1012.6 |
| 20260506193019 | 59 | 301 | 0.0 | 4.3 | 0.00 | 0.66 | 0.23 | 50 | 1012.6 |
| 20260506192507 | 60 | 270 | 0.9 | 6.1 | 0.00 | 0.66 | 0.23 | 49 | 1012.6 |
| 20260506192009 | 60 | 334 | 0.9 | 6.1 | 0.00 | 0.66 | 0.23 | 51 | 1012.5 |
| 20260506191522 | 60 | 34 | 0.0 | 3.5 | 0.00 | 0.66 | 0.23 | 46 | 1012.4 |
| 20260506191007 | 61 | 324 | 0.0 | 7.8 | 0.00 | 0.66 | 0.23 | 48 | 1012.4 |
| 20260506190502 | 61 | 352 | 0.9 | 7.8 | 0.00 | 0.66 | 0.23 | 48 | 1012.4 |
| 20260506190007 | 62 | 265 | 1.7 | 7.0 | 0.00 | 0.66 | 0.23 | 46 | 1012.5 |
| 20260506185504 | 61 | 17 | 1.7 | 7.0 | 0.00 | 0.66 | 0.23 | 48 | 1012.4 |
| 20260506185002 | 61 | 327 | 0.9 | 4.3 | 0.00 | 0.66 | 0.23 | 49 | 1012.4 |
| 20260506184510 | 61 | 286 | 0.9 | 2.6 | 0.00 | 0.66 | 0.23 | 45 | 1012.4 |
| 20260506184004 | 61 | 273 | 0.9 | 7.8 | 0.00 | 0.66 | 0.23 | 50 | 1012.5 |
| 20260506183502 | 61 | 29 | 0.9 | 7.8 | 0.00 | 0.66 | 0.23 | 51 | 1012.5 |
| 20260506183003 | 61 | 51 | 0.9 | 7.8 | 0.00 | 0.66 | 0.23 | 48 | 1012.6 |
| 20260506182502 | 61 | 313 | 0.0 | 4.3 | 0.00 | 0.66 | 0.23 | 51 | 1012.7 |
| 20260506182003 | 61 | 313 | 0.0 | 6.1 | 0.00 | 0.66 | 0.23 | 51 | 1012.7 |
| 20260506181503 | 61 | 346 | 1.7 | 6.1 | 0.00 | 0.66 | 0.23 | 51 | 1012.5 |
| 20260506181003 | 60 | 33 | 0.0 | 5.2 | 0.00 | 0.66 | 0.23 | 52 | 1012.5 |
| 20260506180504 | 61 | 351 | 0.9 | 5.2 | 0.00 | 0.66 | 0.23 | 50 | 1012.6 |
| 20260506180011 | 61 | 320 | 0.0 | 5.2 | 0.00 | 0.66 | 0.23 | 51 | 1012.6 |
| 20260506175503 | 61 | 26 | 0.0 | 3.5 | 0.00 | 0.66 | 0.23 | 47 | 1012.6 |
| 20260506175004 | 61 | 202 | 0.9 | 5.2 | 0.00 | 0.66 | 0.23 | 51 | 1012.6 |
| 20260506174511 | 61 | 340 | 1.7 | 5.2 | 0.00 | 0.66 | 0.23 | 53 | 1012.7 |
| 20260506174004 | 60 | 21 | 0.0 | 4.3 | 0.00 | 0.66 | 0.23 | 51 | 1012.8 |
| 20260506173505 | 60 | 330 | 0.0 | 3.5 | 0.00 | 0.66 | 0.23 | 53 | 1012.9 |
| 20260506173013 | 60 | 26 | 0.9 | 7.8 | 0.00 | 0.66 | 0.23 | 51 | 1012.8 |
| 20260506172508 | 59 | 346 | 0.9 | 7.8 | 0.00 | 0.66 | 0.23 | 49 | 1012.7 |
| 20260506172002 | 60 | 42 | 2.6 | 7.8 | 0.00 | 0.66 | 0.23 | 50 | 1012.6 |
| 20260506171503 | 59 | 16 | 0.0 | 7.0 | 0.00 | 0.66 | 0.23 | 56 | 1012.6 |
| 20260506171004 | 60 | 360 | 0.0 | 8.7 | 0.00 | 0.66 | 0.23 | 56 | 1012.7 |
| 20260506170502 | 59 | 344 | 2.6 | 8.7 | 0.00 | 0.66 | 0.23 | 53 | 1012.7 |
| 20260506170005 | 59 | 303 | 0.9 | 3.5 | 0.00 | 0.66 | 0.23 | 55 | 1012.7 |
| 20260506165505 | 59 | 309 | 0.0 | 7.8 | 0.00 | 0.66 | 0.23 | 58 | 1012.8 |
| 20260506165003 | 59 | 352 | 0.9 | 7.8 | 0.00 | 0.66 | 0.23 | 56 | 1012.6 |
| 20260506164505 | 59 | 352 | 0.0 | 6.1 | 0.00 | 0.66 | 0.23 | 54 | 1012.5 |
| 20260506164004 | 58 | 40 | 0.9 | 6.1 | 0.00 | 0.66 | 0.23 | 60 | 1012.5 |
| 20260506163503 | 59 | 121 | 1.7 | 5.2 | 0.00 | 0.66 | 0.23 | 54 | 1012.7 |
| 20260506163011 | 58 | 317 | 0.0 | 3.5 | 0.00 | 0.66 | 0.23 | 60 | 1012.9 |
| 20260506162505 | 58 | 228 | 0.9 | 4.3 | 0.00 | 0.66 | 0.23 | 57 | 1013.0 |
| 20260506162005 | 58 | 360 | 1.7 | 4.3 | 0.00 | 0.66 | 0.23 | 62 | 1012.8 |
| 20260506161516 | 57 | 5 | 0.0 | 4.3 | 0.00 | 0.66 | 0.23 | 58 | 1012.9 |
| 20260506161007 | 57 | 360 | 0.0 | 3.5 | 0.00 | 0.66 | 0.23 | 58 | 1012.9 |
| 20260506160502 | 56 | 71 | 0.0 | 2.6 | 0.00 | 0.66 | 0.23 | 63 | 1012.8 |
| 20260506160003 | 56 | 306 | 0.9 | 2.6 | 0.00 | 0.66 | 0.23 | 64 | 1012.6 |
| 20260506155502 | 55 | 325 | 0.0 | 2.6 | 0.00 | 0.66 | 0.23 | 64 | 1012.5 |
| 20260506155003 | 55 | 338 | 0.0 | 1.7 | 0.00 | 0.66 | 0.23 | 69 | 1012.6 |
| 20260506154504 | 55 | 299 | 0.0 | 5.2 | 0.00 | 0.66 | 0.23 | 70 | 1012.3 |
| 20260506154004 | 54 | 13 | 1.7 | 5.2 | 0.00 | 0.66 | 0.23 | 69 | 1012.3 |
| 20260506153504 | 54 | 315 | 0.0 | 4.3 | 0.00 | 0.66 | 0.23 | 70 | 1012.2 |
| 20260506153011 | 54 | 313 | 0.9 | 4.3 | 0.00 | 0.66 | 0.23 | 69 | 1012.3 |
| 20260506152506 | 54 | 102 | 0.0 | 4.3 | 0.00 | 0.66 | 0.23 | 71 | 1012.2 |
| 20260506152006 | 53 | 33 | 0.9 | 5.2 | 0.00 | 0.66 | 0.23 | 72 | 1012.2 |
| 20260506151514 | 53 | 40 | 0.9 | 5.2 | 0.00 | 0.66 | 0.23 | 73 | 1012.2 |
| 20260506151004 | 52 | 17 | 1.7 | 6.1 | 0.00 | 0.66 | 0.23 | 73 | 1012.1 |
| 20260506150507 | 52 | 130 | 0.0 | 6.1 | 0.00 | 0.66 | 0.23 | 74 | 1012.0 |
| 20260506150018 | 51 | 68 | 0.9 | 4.3 | 0.00 | 0.66 | 0.23 | 75 | 1011.9 |
| 20260506145506 | 51 | 22 | 1.7 | 4.3 | 0.00 | 0.66 | 0.23 | 78 | 1012.0 |
| 20260506145002 | 51 | 338 | 0.9 | 3.5 | 0.00 | 0.66 | 0.23 | 79 | 1012.0 |
| 20260506144502 | 50 | 360 | 0.0 | 3.5 | 0.00 | 0.66 | 0.23 | 80 | 1012.1 |
| 20260506144002 | 50 | 123 | 0.0 | 3.5 | 0.00 | 0.66 | 0.23 | 82 | 1012.2 |
| 20260506143502 | 50 | 352 | 0.0 | 2.6 | 0.00 | 0.66 | 0.23 | 82 | 1012.2 |
| 20260506143015 | 50 | 22 | 0.0 | 2.6 | 0.00 | 0.66 | 0.23 | 82 | 1012.2 |
| 20260506142504 | 50 | 35 | 0.9 | 3.5 | 0.00 | 0.66 | 0.23 | 83 | 1011.8 |
| 20260506142005 | 49 | 44 | 0.0 | 3.5 | 0.00 | 0.66 | 0.23 | 84 | 1011.7 |
| 20260506141511 | 49 | 48 | 0.0 | 3.5 | 0.00 | 0.66 | 0.23 | 85 | 1011.8 |
| 20260506141009 | 49 | 338 | 0.0 | 2.6 | 0.00 | 0.66 | 0.23 | 86 | 1011.7 |
| 20260506140506 | 48 | 22 | 0.0 | 2.6 | 0.00 | 0.66 | 0.23 | 86 | 1011.5 |
| 20260506140014 | 48 | 13 | 0.0 | 7.0 | 0.00 | 0.66 | 0.23 | 88 | 1011.2 |
| 20260506135511 | 48 | 30 | 0.9 | 7.0 | 0.00 | 0.66 | 0.23 | 88 | 1011.2 |
| 20260506135008 | 48 | 65 | 0.0 | 7.8 | 0.00 | 0.66 | 0.23 | 89 | 1011.2 |
| 20260506134522 | 47 | 28 | 0.9 | 7.8 | 0.00 | 0.66 | 0.23 | 88 | 1011.3 |
| 20260506134008 | 47 | 50 | 0.9 | 7.0 | 0.00 | 0.66 | 0.23 | 90 | 1011.2 |
| 20260506133510 | 47 | 5 | 0.0 | 7.0 | 0.00 | 0.66 | 0.23 | 91 | 1011.2 |
| 20260506133003 | 47 | 40 | 0.9 | 5.2 | 0.00 | 0.66 | 0.23 | 92 | 1011.0 |
| 20260506132502 | 47 | 360 | 0.9 | 6.1 | 0.00 | 0.66 | 0.23 | 93 | 1011.0 |
| 20260506132015 | 46 | 9 | 0.0 | 6.1 | 0.00 | 0.66 | 0.23 | 93 | 1010.8 |
| 20260506131510 | 46 | 22 | 0.0 | 2.6 | 0.00 | 0.66 | 0.23 | 94 | 1010.8 |
| 20260506131007 | 46 | 38 | 0.0 | 1.7 | 0.00 | 0.66 | 0.23 | 94 | 1011.1 |
| 20260506130506 | 46 | 82 | 0.0 | 1.7 | 0.00 | 0.66 | 0.23 | 94 | 1011.0 |
| 20260506130015 | 46 | 22 | 0.0 | 1.7 | 0.00 | 0.66 | 0.23 | 94 | 1011.0 |
| 20260506125506 | 46 | 325 | 0.0 | 1.7 | 0.00 | 0.66 | 0.23 | 94 | 1011.1 |
| 20260506125007 | 46 | 30 | 0.0 | 3.5 | 0.01 | 0.66 | 0.23 | 94 | 1011.0 |
| 20260506124517 | 46 | 15 | 0.0 | 3.5 | 0.01 | 0.66 | 0.23 | 93 | 1010.9 |
| 20260506124008 | 46 | 30 | 0.0 | 2.6 | 0.01 | 0.66 | 0.23 | 94 | 1010.8 |
| 20260506123508 | 46 | 313 | 0.0 | 1.7 | 0.01 | 0.66 | 0.23 | 95 | 1010.6 |
| 20260506123029 | 46 | 340 | 0.0 | 0.9 | 0.01 | 0.66 | 0.23 | 95 | 1010.3 |
| 20260506122508 | 46 | 5 | 0.0 | 3.5 | 0.01 | 0.66 | 0.23 | 95 | 1010.2 |
| 20260506122012 | 46 | 5 | 0.0 | 3.5 | 0.01 | 0.66 | 0.23 | 95 | 1010.0 |
| 20260506121529 | 46 | 38 | 0.0 | 2.6 | 0.01 | 0.66 | 0.23 | 95 | 1010.0 |
| 20260506121003 | 46 | 38 | 0.0 | 2.6 | 0.01 | 0.66 | 0.23 | 95 | 1009.8 |
| 20260506120504 | 46 | 335 | 0.0 | 2.6 | 0.01 | 0.66 | 0.23 | 95 | 1010.0 |
| 20260506120010 | 46 | 360 | 0.0 | 2.6 | 0.01 | 0.66 | 0.23 | 95 | 1010.0 |
| 20260506115504 | 46 | 352 | 0.0 | 1.7 | 0.01 | 0.66 | 0.23 | 95 | 1010.1 |
| 20260506115006 | 46 | 342 | 0.0 | 1.7 | 0.00 | 0.65 | 0.22 | 95 | 1009.9 |
| 20260506114518 | 46 | 323 | 0.0 | 1.7 | 0.00 | 0.65 | 0.22 | 95 | 1010.1 |
| 20260506114010 | 46 | 270 | 0.0 | 1.7 | 0.00 | 0.65 | 0.22 | 95 | 1010.2 |
| 20260506113509 | 46 | 314 | 0.0 | 1.7 | 0.00 | 0.65 | 0.22 | 95 | 1010.1 |
| 20260506113028 | 46 | 14 | 0.0 | 3.5 | 0.00 | 0.65 | 0.22 | 95 | 1010.2 |
| 20260506112512 | 46 | 316 | 0.0 | 3.5 | 0.00 | 0.65 | 0.22 | 95 | 1010.0 |
| 20260506112016 | 46 | 10 | 0.0 | 5.2 | 0.00 | 0.65 | 0.22 | 95 | 1009.3 |
| 20260506111524 | 46 | 350 | 0.0 | 5.2 | 0.00 | 0.65 | 0.22 | 95 | 1008.9 |
| 20260506111017 | 46 | 19 | 0.0 | 4.3 | 0.00 | 0.65 | 0.22 | 95 | 1008.6 |
| 20260506110510 | 46 | 36 | 0.0 | 4.3 | 0.00 | 0.65 | 0.22 | 95 | 1008.8 |
| 20260506110031 | 46 | 22 | 0.0 | 2.6 | 0.00 | 0.65 | 0.22 | 95 | 1008.9 |
| 20260506105504 | 46 | 281 | 0.0 | 2.6 | 0.00 | 0.65 | 0.22 | 95 | 1009.0 |
| 20260506105005 | 46 | 323 | 0.0 | 2.6 | 0.00 | 0.65 | 0.22 | 95 | 1008.8 |
| 20260506104511 | 46 | 59 | 0.0 | 3.5 | 0.00 | 0.65 | 0.22 | 95 | 1008.8 |
| 20260506104006 | 46 | 13 | 0.0 | 3.5 | 0.00 | 0.65 | 0.22 | 95 | 1009.0 |
| 20260506103511 | 46 | 352 | 0.0 | 3.5 | 0.00 | 0.65 | 0.22 | 95 | 1009.2 |
| 20260506103015 | 46 | 33 | 0.0 | 3.5 | 0.00 | 0.65 | 0.22 | 95 | 1009.1 |
| 20260506102507 | 46 | 346 | 0.0 | 2.6 | 0.00 | 0.65 | 0.22 | 95 | 1009.0 |
| 20260506102009 | 46 | 348 | 0.0 | 0.9 | 0.00 | 0.65 | 0.22 | 95 | 1008.9 |
| 20260506101524 | 46 | 339 | 0.0 | 2.6 | 0.00 | 0.65 | 0.22 | 95 | 1008.6 |
| 20260506101006 | 46 | 17 | 0.0 | 2.6 | 0.00 | 0.65 | 0.22 | 95 | 1008.4 |
| 20260506100504 | 46 | 28 | 0.0 | 3.5 | 0.01 | 0.65 | 0.22 | 95 | 1008.0 |
| 20260506100008 | 46 | 348 | 0.0 | 3.5 | 0.01 | 0.65 | 0.22 | 95 | 1007.8 |
| 20260506095505 | 46 | 360 | 0.0 | 2.6 | 0.01 | 0.65 | 0.22 | 95 | 1007.6 |
| 20260506095004 | 46 | 327 | 0.0 | 2.6 | 0.01 | 0.65 | 0.22 | 95 | 1007.9 |
| 20260506094512 | 46 | 309 | 0.0 | 6.1 | 0.01 | 0.65 | 0.22 | 95 | 1008.1 |
| 20260506094003 | 46 | 9 | 0.0 | 6.1 | 0.02 | 0.65 | 0.22 | 95 | 1007.5 |
| 20260506093503 | 46 | 57 | 1.7 | 6.1 | 0.02 | 0.65 | 0.22 | 95 | 1007.3 |
| 20260506093014 | 46 | 29 | 0.9 | 3.5 | 0.02 | 0.65 | 0.22 | 95 | 1007.8 |
| 20260506092506 | 46 | 27 | 0.9 | 5.2 | 0.03 | 0.65 | 0.22 | 95 | 1007.8 |
| 20260506092003 | 46 | 292 | 0.9 | 5.2 | 0.04 | 0.65 | 0.22 | 95 | 1008.0 |
| 20260506091511 | 46 | 37 | 0.9 | 4.3 | 0.05 | 0.65 | 0.22 | 95 | 1008.0 |
| 20260506091003 | 46 | 360 | 0.0 | 2.6 | 0.05 | 0.65 | 0.22 | 95 | 1008.0 |
| 20260506090503 | 46 | 317 | 0.0 | 4.3 | 0.05 | 0.64 | 0.21 | 95 | 1007.7 |
| 20260506090006 | 46 | 61 | 0.9 | 7.0 | 0.05 | 0.64 | 0.21 | 95 | 1007.5 |
| 20260506085504 | 46 | 5 | 2.6 | 7.0 | 0.06 | 0.64 | 0.21 | 95 | 1007.5 |
| 20260506085002 | 46 | 43 | 0.9 | 4.3 | 0.06 | 0.64 | 0.21 | 95 | 1007.6 |
| 20260506084507 | 46 | 146 | 0.0 | 10.4 | 0.06 | 0.64 | 0.21 | 95 | 1007.8 |
| 20260506084010 | 46 | 5 | 0.9 | 10.4 | 0.05 | 0.63 | 0.20 | 94 | 1008.1 |
| 20260506083504 | 46 | 31 | 0.0 | 4.3 | 0.05 | 0.63 | 0.20 | 95 | 1008.2 |
| 20260506083013 | 46 | 159 | 0.0 | 4.3 | 0.06 | 0.63 | 0.20 | 95 | 1007.8 |
| 20260506082504 | 46 | 352 | 0.9 | 4.3 | 0.05 | 0.62 | 0.19 | 95 | 1007.8 |
| 20260506082009 | 46 | 44 | 0.9 | 4.3 | 0.04 | 0.61 | 0.18 | 95 | 1007.6 |
| 20260506081519 | 46 | 53 | 0.9 | 7.0 | 0.03 | 0.60 | 0.17 | 95 | 1007.6 |
| 20260506081008 | 46 | 360 | 0.9 | 7.8 | 0.03 | 0.60 | 0.17 | 95 | 1007.7 |
| 20260506080506 | 46 | 14 | 0.0 | 7.8 | 0.03 | 0.58 | 0.16 | 94 | 1007.7 |
| 20260506073503 | 46 | 39 | 0.0 | 8.7 | 0.05 | 0.58 | 0.15 | 94 | 1007.1 |
| 20260506073010 | 46 | 19 | 0.0 | 8.7 | 0.05 | 0.57 | 0.14 | 94 | 1007.2 |
| 20260506072511 | 46 | 55 | 0.9 | 7.8 | 0.05 | 0.57 | 0.14 | 94 | 1007.0 |
| 20260506072006 | 47 | 312 | 0.0 | 7.8 | 0.06 | 0.57 | 0.14 | 94 | 1007.3 |
| 20260506071516 | 47 | 64 | 0.0 | 3.5 | 0.06 | 0.57 | 0.14 | 94 | 1007.2 |
| 20260506071007 | 47 | 338 | 0.0 | 7.0 | 0.07 | 0.57 | 0.14 | 94 | 1007.2 |
| 20260506070507 | 47 | 28 | 0.0 | 7.0 | 0.07 | 0.56 | 0.13 | 94 | 1007.1 |
| 20260506062505 | 48 | 26 | 0.9 | 6.1 | 0.07 | 0.52 | 0.09 | 94 | 1007.3 |
| 20260506062006 | 48 | 336 | 0.0 | 6.1 | 0.06 | 0.51 | 0.08 | 94 | 1007.3 |
| 20260506061520 | 48 | 36 | 0.0 | 2.6 | 0.07 | 0.51 | 0.08 | 94 | 1007.4 |
| 20260506061008 | 48 | 27 | 0.0 | 2.6 | 0.06 | 0.50 | 0.07 | 94 | 1007.3 |
| 20260506060508 | 49 | 332 | 0.0 | 2.6 | 0.06 | 0.49 | 0.06 | 94 | 1007.4 |
| 20260506051008 | 49 | 46 | 0.9 | 7.0 | 0.01 | 0.44 | 0.01 | 94 | 1007.4 |
| 20260506050506 | 49 | 21 | 0.9 | 3.5 | 0.00 | 0.43 | 0.00 | 94 | 1007.4 |
| 20260506045008 | 50 | 44 | 0.0 | 4.3 | 0.01 | 0.43 | 0.00 | 93 | 1007.7 |
| 20260506044524 | 50 | 5 | 0.9 | 4.3 | 0.01 | 0.43 | 0.00 | 93 | 1007.6 |
| 20260506044010 | 50 | 302 | 0.9 | 3.5 | 0.01 | 0.43 | 0.00 | 94 | 1007.6 |
| 20260506043508 | 50 | 352 | 0.0 | 7.8 | 0.01 | 0.43 | 0.00 | 94 | 1007.4 |
| 20260506043036 | 50 | 20 | 0.0 | 9.6 | 0.02 | 0.43 | 0.00 | 93 | 1007.6 |
| 20260506042508 | 50 | 73 | 2.6 | 9.6 | 0.02 | 0.43 | 0.00 | 93 | 1007.5 |
| 20260506042012 | 50 | 333 | 1.7 | 7.8 | 0.03 | 0.43 | 0.00 | 93 | 1007.7 |
| 20260506041530 | 50 | 20 | 0.0 | 7.8 | 0.04 | 0.43 | 0.00 | 93 | 1007.6 |
| 20260506041008 | 50 | 18 | 1.7 | 7.0 | 0.05 | 0.43 | 0.00 | 93 | 1007.6 |
| 20260506040504 | 50 | 5 | 2.6 | 7.0 | 0.07 | 0.43 | 0.00 | 93 | 1007.6 |
| 20260506040011 | 51 | 40 | 1.7 | 4.3 | 0.09 | 0.43 | 0.00 | 92 | 1007.7 |
| 20260506035506 | 51 | 360 | 1.7 | 4.3 | 0.11 | 0.43 | 0.43 | 92 | 1007.9 |
| 20260506035011 | 51 | 360 | 0.0 | 4.3 | 0.11 | 0.42 | 0.42 | 92 | 1008.0 |
| 20260506034518 | 51 | 26 | 0.0 | 4.3 | 0.12 | 0.42 | 0.42 | 91 | 1008.0 |
| 20260506034009 | 51 | 29 | 0.0 | 7.8 | 0.12 | 0.42 | 0.42 | 91 | 1008.0 |
| 20260506033506 | 52 | 38 | 1.7 | 7.8 | 0.12 | 0.42 | 0.42 | 91 | 1008.0 |
| 20260506033021 | 53 | 300 | 0.9 | 4.3 | 0.12 | 0.41 | 0.41 | 90 | 1008.0 |
| 20260506032507 | 53 | 312 | 0.9 | 3.5 | 0.12 | 0.41 | 0.41 | 91 | 1008.2 |
| 20260506032009 | 54 | 24 | 0.9 | 3.5 | 0.12 | 0.40 | 0.40 | 90 | 1008.4 |
| 20260506031529 | 55 | 84 | 0.0 | 1.7 | 0.11 | 0.39 | 0.39 | 90 | 1008.3 |
| 20260506031011 | 56 | 352 | 0.0 | 5.2 | 0.11 | 0.38 | 0.38 | 91 | 1008.5 |
| 20260506030509 | 57 | 335 | 0.0 | 6.1 | 0.10 | 0.36 | 0.36 | 92 | 1008.5 |
| 20260506030029 | 57 | 352 | 0.9 | 6.1 | 0.09 | 0.34 | 0.34 | 93 | 1008.2 |
| 20260506025508 | 58 | 292 | 0.0 | 7.0 | 0.08 | 0.32 | 0.32 | 93 | 1008.5 |
| 20260506025003 | 58 | 319 | 0.0 | 7.0 | 0.08 | 0.31 | 0.31 | 93 | 1008.3 |
| 20260506024531 | 58 | 226 | 0.9 | 7.0 | 0.08 | 0.30 | 0.30 | 93 | 1008.2 |
| 20260506024014 | 58 | 255 | 1.7 | 7.0 | 0.08 | 0.30 | 0.30 | 93 | 1008.1 |
| 20260506023513 | 58 | 184 | 0.9 | 6.1 | 0.09 | 0.30 | 0.30 | 93 | 1008.1 |
| 20260506023018 | 58 | 313 | 2.6 | 6.1 | 0.09 | 0.29 | 0.29 | 93 | 1008.1 |
| 20260506022511 | 58 | 311 | 0.9 | 6.1 | 0.10 | 0.29 | 0.29 | 93 | 1008.1 |
| 20260506022012 | 58 | 186 | 1.7 | 6.1 | 0.09 | 0.28 | 0.28 | 93 | 1008.1 |
| 20260506021532 | 58 | 186 | 1.7 | 6.1 | 0.10 | 0.28 | 0.28 | 93 | 1008.1 |
| 20260506021010 | 59 | 227 | 0.9 | 6.1 | 0.09 | 0.27 | 0.27 | 93 | 1008.2 |
| 20260506020509 | 59 | 190 | 1.7 | 9.6 | 0.08 | 0.26 | 0.26 | 93 | 1008.2 |
| 20260506020028 | 59 | 173 | 2.6 | 9.6 | 0.07 | 0.25 | 0.25 | 93 | 1008.2 |
| 20260506015509 | 59 | 202 | 0.9 | 4.3 | 0.06 | 0.24 | 0.24 | 94 | 1008.3 |
| 20260506015016 | 59 | 201 | 0.9 | 5.2 | 0.05 | 0.23 | 0.23 | 94 | 1008.2 |
| 20260506014531 | 59 | 198 | 2.6 | 5.2 | 0.05 | 0.22 | 0.22 | 94 | 1008.2 |
| 20260506014012 | 59 | 267 | 0.0 | 2.6 | 0.05 | 0.22 | 0.22 | 94 | 1008.2 |
| 20260506013510 | 59 | 200 | 0.9 | 2.6 | 0.04 | 0.21 | 0.21 | 94 | 1008.2 |
| 20260506013016 | 59 | 214 | 0.0 | 3.5 | 0.04 | 0.20 | 0.20 | 94 | 1008.1 |
| 20260506012506 | 59 | 185 | 0.0 | 3.5 | 0.03 | 0.19 | 0.19 | 94 | 1008.0 |
| 20260506012007 | 59 | 214 | 0.9 | 1.7 | 0.03 | 0.19 | 0.19 | 94 | 1008.0 |
| 20260506011522 | 59 | 205 | 0.0 | 1.7 | 0.03 | 0.18 | 0.18 | 93 | 1007.9 |
| 20260506011013 | 59 | 210 | 0.0 | 3.5 | 0.03 | 0.18 | 0.18 | 93 | 1007.7 |
| 20260506011006 | 59 | 209 | 0.0 | 3.5 | 0.03 | 0.18 | 0.18 | 93 | 1007.7 |
| 20260506010502 | 59 | 170 | 0.0 | 3.5 | 0.03 | 0.18 | 0.18 | 93 | 1007.5 |
| 20260506010006 | 59 | 173 | 0.9 | 4.3 | 0.03 | 0.18 | 0.18 | 93 | 1007.6 |